Theta_e
328 328 328 328 327 327 327 326 326 326 326 326 324 323 324 324 323 323 323 323 323 324 326 326 325 326 330 332 331 330 330 329 329 330 331 331 330 329 328 327 327 326 324 324 323 320 318 316 314 311 310 309 308 308 308 307 308 307 307 306 305 305 305 305 305 306 306 307 307 307 307 307 307 307 307 307 307 307 307 307 307 307 307 307 307
327 327 328 328 327 326 326 326 326 326 326 327 326 325 324 324 324 325 325 325 325 326 327 328 327 326 327 329 329 329 329 329 329 330 331 331 330 329 328 327 327 327 324 323 323 321 320 318 315 312 310 309 310 310 310 309 309 309 309 308 307 306 305 305 305 305 305 306 306 306 307 307 307 307 307 307 307 307 307 307 307 307 307 306 306
326 327 328 328 327 327 326 326 327 326 326 327 327 327 326 325 325 325 326 327 327 328 328 329 329 328 326 326 328 328 329 329 328 330 331 330 329 329 328 327 328 329 325 324 323 322 323 322 319 314 311 313 317 317 315 312 311 310 310 309 309 307 306 305 305 305 305 305 305 306 306 306 307 307 307 307 307 307 307 307 307 307 307 307 306
326 327 328 328 327 327 326 326 326 326 326 326 326 327 327 327 327 326 327 327 327 328 328 328 327 328 327 327 328 327 328 328 328 330 331 330 329 329 328 328 328 328 325 324 324 323 323 322 322 321 319 322 324 324 321 316 313 311 310 310 309 308 307 306 305 305 304 305 305 305 305 306 306 307 307 307 307 307 307 307 307 307 307 307 307
326 326 327 327 328 327 327 327 326 325 325 325 324 325 327 327 327 327 327 327 326 326 327 327 326 326 326 327 327 327 328 328 328 329 330 330 328 328 328 328 327 327 325 325 325 324 323 321 323 325 325 326 327 326 325 320 315 312 310 309 309 308 307 306 306 306 305 305 304 305 305 305 306 306 306 307 307 307 307 307 308 308 308 307 307
326 326 325 326 328 328 327 327 327 326 325 325 324 324 325 327 327 326 326 326 325 326 326 326 326 325 325 326 327 327 328 328 328 329 330 329 328 328 328 327 327 327 326 326 326 325 324 322 322 325 325 326 328 327 327 324 318 315 312 310 309 308 307 307 306 306 306 305 305 304 304 304 305 305 306 306 306 307 307 308 308 308 308 308 307
326 325 325 326 327 328 327 327 327 327 326 325 324 323 324 325 326 326 325 325 325 326 326 326 326 326 326 327 327 327 327 327 328 329 329 328 328 328 327 327 327 327 327 327 327 326 325 322 321 324 325 326 327 327 328 325 320 319 316 313 312 311 310 309 308 306 305 305 305 305 304 304 304 304 305 305 305 306 307 307 308 308 308 308 308
326 326 326 326 327 327 327 327 327 326 325 325 324 323 323 325 326 326 325 325 326 325 325 326 327 327 327 328 327 327 327 327 328 328 328 329 329 328 327 327 327 327 326 326 326 327 327 324 321 322 323 325 326 326 326 325 323 322 319 317 317 316 315 314 313 311 309 308 307 306 305 304 304 303 304 304 305 306 307 307 307 308 308 308 308
327 326 327 326 326 327 327 326 326 326 325 325 324 323 323 325 326 325 325 326 326 325 325 326 327 328 328 328 327 326 327 327 327 327 328 329 329 327 326 327 327 327 326 325 325 326 327 325 322 321 321 322 323 324 325 324 325 325 324 322 321 321 320 320 320 319 317 316 314 313 310 308 306 304 304 305 306 306 307 307 307 308 308 308 308
326 326 327 326 326 327 327 327 327 326 326 325 324 322 323 325 325 324 325 326 326 325 326 326 327 328 327 327 326 326 327 327 326 327 328 329 328 327 327 327 327 326 326 325 324 326 326 326 325 322 320 320 319 321 324 325 325 326 326 325 324 324 324 324 325 324 324 323 323 322 320 316 312 309 308 307 307 307 308 308 307 307 307 307 308
326 326 327 327 327 327 327 327 327 326 326 325 323 323 323 324 325 325 325 325 326 326 326 327 327 326 327 327 326 326 326 326 326 327 328 328 328 328 328 327 326 326 326 325 324 326 326 325 326 325 322 320 318 319 323 324 325 325 326 326 325 325 325 326 327 326 325 326 326 326 325 323 320 315 312 310 309 309 309 309 308 308 308 308 308
326 326 326 326 327 327 327 327 327 327 326 325 324 324 324 324 325 325 325 325 325 326 326 326 326 326 326 327 326 325 325 326 326 326 326 327 328 328 328 327 327 326 326 325 325 325 326 325 325 326 324 322 320 319 321 323 324 325 325 325 325 325 325 326 327 326 326 326 325 326 326 326 324 322 318 314 313 312 312 311 310 309 309 309 308
325 324 323 324 325 326 327 327 327 327 327 325 325 325 325 324 324 325 326 325 325 326 326 326 326 326 327 327 326 326 326 327 326 326 326 327 328 328 328 327 327 327 326 326 325 325 326 325 325 326 326 324 323 322 323 323 324 325 325 325 325 326 325 325 325 325 325 325 324 325 326 325 325 325 323 320 319 318 316 315 314 313 311 311 310
324 323 323 325 325 326 327 327 327 328 327 326 325 325 325 325 325 325 325 325 325 325 326 326 327 327 327 328 327 327 327 327 327 326 327 327 328 328 328 327 327 327 326 326 326 326 326 326 325 325 325 325 324 324 324 325 325 325 325 326 325 325 324 323 323 323 324 324 324 325 326 325 324 325 325 324 323 322 320 319 319 318 316 314 311
323 323 325 325 326 327 327 327 327 327 327 326 325 326 326 325 325 325 324 324 325 325 325 326 327 327 327 328 327 327 327 327 327 327 327 327 328 327 328 328 327 327 327 327 327 326 326 326 325 325 324 324 324 324 324 324 324 324 325 326 325 324 323 322 322 322 323 324 324 324 325 325 325 324 324 325 325 324 324 322 322 321 321 319 316
322 323 324 324 325 327 326 326 327 327 326 326 326 327 327 326 325 324 324 324 324 324 325 326 327 327 327 328 327 327 327 327 327 327 327 327 327 327 327 328 328 327 327 327 327 327 327 326 326 325 324 324 324 324 324 323 324 324 324 324 324 323 322 322 322 322 323 324 323 324 324 325 325 324 324 324 324 324 324 324 323 322 322 323 322
322 323 323 323 324 325 325 326 326 326 326 326 326 327 327 326 325 324 324 324 323 323 324 326 327 327 327 327 327 328 327 326 326 327 326 326 327 327 327 326 327 327 327 326 327 326 327 327 326 326 325 325 325 325 325 324 324 324 324 324 324 323 322 322 322 322 323 322 322 323 323 324 325 324 324 324 324 323 323 325 325 323 323 324 324
322 323 324 324 323 323 324 324 325 324 325 326 326 326 326 326 326 325 324 324 324 324 324 326 327 327 327 327 327 327 326 326 326 326 326 326 326 326 326 326 326 326 326 326 325 325 325 326 326 325 324 323 324 324 325 325 325 324 324 324 323 322 322 322 322 322 322 322 321 321 320 321 322 321 320 322 323 323 324 324 324 324 324 324 324
322 323 323 322 321 321 322 322 322 323 324 326 326 326 326 326 326 326 325 324 325 325 325 326 326 326 327 326 325 325 325 325 325 326 326 325 325 325 325 325 326 326 325 324 324 324 324 324 323 322 322 322 323 324 324 325 324 324 323 322 322 321 320 320 320 320 320 318 316 313 313 314 314 313 314 317 319 320 322 322 323 323 324 324 324
320 320 320 319 318 319 320 321 322 322 323 325 325 325 326 326 326 326 325 324 325 326 325 326 327 326 326 326 326 325 325 324 325 326 326 325 325 325 325 325 325 324 323 323 323 323 322 321 321 321 322 322 323 323 323 323 323 322 322 321 320 319 318 318 318 316 312 310 307 306 306 306 306 306 309 312 313 314 316 316 317 318 317 318 320
317 316 316 316 316 318 320 321 322 323 324 324 324 324 325 325 325 325 325 325 325 326 325 326 327 327 326 326 326 325 325 324 324 325 325 325 325 325 325 325 324 322 322 322 322 321 321 320 321 321 322 322 322 322 322 322 322 321 321 320 319 318 318 316 313 309 306 305 305 305 305 306 305 305 305 307 308 309 310 310 311 311 310 310 312
314 312 313 314 316 318 320 321 323 324 324 324 324 325 325 324 324 325 325 325 325 326 326 325 326 327 327 326 326 325 325 325 324 324 325 325 325 325 325 324 323 322 321 321 321 321 321 321 321 321 321 321 321 322 322 322 321 320 319 319 319 318 315 311 307 306 307 307 308 309 309 309 309 308 308 307 307 307 307 307 307 308 308 308 308
312 312 314 316 317 319 320 320 321 322 323 323 323 324 325 324 323 324 325 325 325 325 326 325 325 326 326 326 325 325 325 325 325 324 325 325 324 324 324 323 322 321 321 321 321 321 321 321 321 321 321 322 322 322 322 321 321 320 319 318 315 311 308 307 307 308 309 310 310 311 311 311 310 310 310 310 310 309 309 308 308 307 307 307 307
312 314 317 318 319 319 320 320 319 319 320 320 319 320 323 323 322 323 324 325 325 325 325 325 325 325 326 325 325 325 325 325 325 324 324 325 325 324 323 322 322 321 321 320 320 321 320 320 320 320 321 322 322 322 321 321 320 318 315 312 308 307 308 309 310 310 310 310 310 310 310 310 310 310 310 310 310 310 310 310 309 309 309 308 308
314 317 318 319 320 320 320 320 319 317 318 318 318 319 321 321 321 322 323 324 324 324 324 324 324 324 325 325 324 324 325 325 325 325 324 324 324 324 323 322 321 320 319 319 320 320 320 319 319 319 319 319 319 319 318 317 314 310 308 307 307 308 310 309 309 309 309 308 308 308 307 307 307 307 307 307 307 307 307 308 308 308 308 308 308
316 317 317 319 320 321 320 320 318 316 318 319 319 320 319 319 320 322 323 323 323 323 323 323 323 323 324 325 325 324 325 324 324 324 324 324 324 323 322 321 320 318 317 318 318 317 317 318 318 317 317 315 315 314 312 310 308 306 307 308 309 309 309 308 308 307 307 306 305 304 304 304 303 303 303 303 303 303 303 303 304 304 305 305 305
316 316 316 318 320 321 321 319 315 312 315 318 318 318 318 317 319 321 322 322 322 322 323 323 323 323 324 324 325 325 325 324 324 324 324 323 323 321 320 320 319 318 317 316 316 316 317 317 317 316 314 312 311 309 307 307 307 307 308 309 309 309 308 307 306 306 305 304 304 303 303 303 302 302 302 301 301 301 301 301 301 301 301 301 301
317 317 316 316 318 320 320 317 312 308 312 315 316 317 317 317 319 321 322 322 322 322 322 322 323 323 323 324 324 324 324 324 323 323 323 323 321 317 316 318 317 318 318 317 316 316 317 317 316 314 311 307 306 306 306 307 308 309 309 309 309 308 307 306 306 306 305 305 305 305 305 304 304 304 303 302 302 301 301 301 301 301 301 301 301
318 318 316 314 315 317 318 316 310 307 309 314 316 316 317 319 321 322 322 322 322 321 320 321 322 322 323 323 323 324 323 323 323 322 322 322 320 315 314 315 314 314 317 318 316 315 316 314 311 309 306 304 304 305 307 308 308 309 309 309 309 308 308 307 307 307 307 307 307 307 307 307 306 306 305 304 303 302 302 302 302 301 301 301 301
318 318 317 315 313 314 314 314 310 306 308 313 315 316 317 320 321 321 321 321 320 319 319 321 322 322 323 323 323 323 322 322 321 321 320 321 318 314 314 314 312 312 314 316 316 314 314 313 308 306 304 304 305 307 308 308 308 309 309 309 309 309 309 308 308 308 309 309 309 308 308 308 308 307 307 306 305 303 302 302 302 301 301 301 301
313 316 317 315 313 311 311 311 309 306 307 312 315 315 317 319 320 320 319 319 319 319 319 320 321 322 322 322 321 321 321 320 320 319 318 319 317 314 315 316 315 313 313 314 314 311 311 311 308 305 304 305 307 308 308 308 308 309 309 309 309 309 309 309 309 309 310 310 310 310 309 309 309 309 308 308 307 305 303 302 302 301 301 301 301
308 311 314 314 312 309 308 309 308 305 307 312 314 314 314 316 317 317 316 315 316 317 318 318 320 321 321 320 319 319 319 318 318 318 317 318 317 315 316 317 317 316 314 315 315 310 308 309 308 305 305 306 308 308 308 308 308 309 309 309 309 309 309 309 309 309 310 310 310 310 310 310 310 310 310 310 309 307 304 302 302 301 301 300 300
306 307 309 310 309 306 306 307 307 305 306 310 313 312 312 313 314 314 313 312 312 314 316 317 318 319 320 320 320 318 318 318 317 317 317 317 317 317 317 317 317 318 317 316 315 311 308 308 307 306 306 307 308 308 308 308 309 309 309 309 309 309 309 309 309 309 310 310 310 310 310 311 311 311 311 311 310 308 305 302 301 301 301 300 300
307 305 306 307 306 305 305 306 306 305 305 307 309 310 310 311 311 311 310 310 309 311 315 316 317 317 318 319 319 318 318 317 317 316 316 316 316 315 315 316 316 318 318 318 317 314 310 309 307 306 306 307 308 309 309 309 309 309 309 308 308 308 308 309 309 309 310 310 310 310 310 311 311 311 311 311 311 309 306 303 301 301 301 300 300
307 305 305 305 305 305 305 305 305 305 304 305 306 308 309 309 309 308 307 307 307 309 313 316 316 316 316 317 318 318 317 317 316 316 316 315 314 313 313 314 314 315 316 317 318 317 314 310 308 307 307 308 309 309 309 309 309 308 308 308 308 308 308 309 309 309 310 310 310 310 310 311 311 311 312 312 311 310 306 303 301 301 300 300 300
307 305 305 305 305 305 304 305 305 305 305 304 305 307 308 308 308 307 307 307 307 308 311 314 315 315 315 316 316 317 316 316 316 315 314 313 313 313 313 313 313 314 314 315 317 318 317 314 310 308 307 308 309 309 309 309 308 308 308 308 308 308 309 309 309 309 309 310 310 310 310 311 311 311 311 312 311 310 306 302 301 300 300 300 300
310 305 305 305 305 304 304 304 305 305 304 304 305 306 307 308 308 308 309 309 309 309 309 310 312 313 313 314 315 315 315 315 314 313 313 313 313 313 313 313 313 313 313 314 314 317 319 317 313 309 308 308 309 309 309 309 308 308 308 308 308 308 309 309 309 309 309 309 310 310 310 310 311 311 311 312 311 309 305 302 300 300 300 299 299
314 308 305 305 305 304 304 304 304 305 304 304 306 307 308 309 309 309 309 309 310 309 309 309 309 309 310 311 312 312 313 313 313 313 312 312 312 313 314 314 313 313 313 313 314 316 318 318 316 312 309 308 309 309 309 309 309 308 308 308 308 308 309 309 309 309 309 309 310 310 310 310 311 311 311 311 311 308 304 301 300 300 299 299 299
316 310 306 305 304 304 304 304 304 304 304 305 306 308 309 309 309 310 309 309 310 310 310 310 310 310 310 310 311 311 312 313 313 313 313 313 313 313 314 314 314 314 313 314 313 314 316 318 318 315 311 309 308 309 309 309 309 309 308 308 308 309 309 309 309 309 309 309 310 310 310 310 311 311 311 311 310 306 302 300 300 299 299 299 298
316 312 308 305 304 304 304 304 305 305 305 306 307 309 309 309 310 310 309 310 310 310 311 312 312 313 314 313 313 313 314 314 314 314 315 315 315 314 314 314 314 314 314 314 314 313 314 315 316 315 312 310 309 308 308 309 309 309 309 309 309 309 309 309 309 309 309 309 310 310 310 310 310 311 311 310 308 304 301 300 299 299 299 299 298
316 313 309 306 305 305 305 305 305 305 306 307 309 309 310 310 310 310 310 310 310 310 311 312 313 314 315 315 315 316 316 316 316 316 316 315 315 315 315 315 315 315 315 315 315 314 314 313 313 313 311 310 309 309 308 308 308 309 309 309 309 309 309 309 309 310 310 310 310 310 310 310 310 310 310 308 305 302 300 299 299 299 299 299 298
316 313 310 308 306 305 305 305 305 306 307 309 310 310 310 310 310 310 310 310 309 311 313 314 314 314 314 316 317 317 317 317 317 317 317 317 316 316 316 315 315 315 315 315 315 315 315 314 314 313 312 311 311 311 310 309 308 308 309 309 309 309 309 309 310 310 310 310 310 310 310 310 310 310 308 306 303 300 300 299 299 299 299 298 298
314 313 313 312 310 308 307 307 307 307 309 310 310 310 310 310 311 311 312 312 312 314 316 317 316 316 316 317 317 317 318 318 318 318 318 318 317 317 317 317 316 315 315 315 315 315 315 315 315 315 314 313 312 312 312 311 309 308 309 309 309 309 309 309 310 310 310 310 310 309 310 310 309 308 306 303 301 300 299 299 299 299 298 298 297
313 313 313 313 312 312 312 311 311 311 312 312 312 312 312 313 314 314 315 316 316 317 317 317 317 317 317 318 318 318 318 318 319 319 319 318 318 318 318 318 318 317 317 316 315 315 315 315 316 315 315 315 314 313 312 312 311 309 309 309 309 310 310 310 310 310 310 310 309 309 310 310 309 306 303 301 300 300 299 299 299 299 298 297 296
314 313 311 310 312 315 315 315 315 315 315 315 315 315 315 315 316 316 316 317 317 317 317 317 317 318 318 318 318 319 319 319 319 319 319 319 319 318 318 318 319 319 318 318 317 316 315 315 316 316 316 315 315 315 314 313 312 311 310 309 310 310 310 310 309 310 310 310 310 310 310 310 307 303 301 300 300 300 299 299 299 298 297 296 295
314 314 313 314 315 317 317 317 317 317 316 316 316 316 316 316 316 316 316 316 316 317 317 317 317 317 318 318 318 318 319 319 319 320 319 319 319 319 319 319 319 320 319 318 317 317 316 316 316 316 316 316 316 316 316 314 313 312 311 310 310 310 310 310 309 310 310 310 310 310 308 307 305 302 300 300 300 299 299 299 298 297 296 295 295
316 316 316 316 318 319 318 318 317 317 318 317 316 316 316 316 316 316 316 316 316 317 317 317 317 317 318 318 318 318 318 319 319 319 319 319 318 318 319 319 319 319 319 318 317 317 317 317 316 316 316 316 316 316 316 316 314 313 312 311 310 310 310 310 309 309 309 310 310 309 306 304 303 301 300 300 299 299 298 298 297 296 295 295 295
318 318 317 318 319 320 320 319 318 318 318 318 317 317 316 316 317 317 317 317 317 317 317 317 317 317 318 318 318 318 318 318 318 318 318 318 318 318 318 318 318 318 318 318 317 317 317 317 317 317 316 316 316 315 315 316 315 313 312 311 310 310 310 310 309 308 309 309 309 306 303 302 302 301 300 300 299 298 297 297 296 295 295 295 295
317 316 318 320 320 320 320 320 320 319 319 319 318 318 318 318 318 318 319 319 318 319 319 319 319 319 319 319 319 319 319 319 318 318 318 318 318 318 318 318 318 318 318 317 317 317 317 317 317 317 316 316 316 315 315 316 316 315 313 311 310 309 309 309 308 308 307 306 306 304 302 301 301 300 299 299 298 297 296 296 295 295 295 295 295
317 315 317 319 319 319 319 319 319 318 318 318 319 319 319 319 318 318 318 318 318 318 318 318 318 318 318 318 317 317 317 317 317 317 317 317 316 316 317 317 317 316 316 316 316 317 317 317 316 316 316 315 315 315 315 315 316 315 312 310 309 309 308 308 307 307 305 304 304 303 301 301 300 299 299 298 297 297 296 295 295 295 295 295 295
316 315 316 316 316 316 316 316 316 316 316 316 316 317 317 317 317 316 316 316 315 315 315 315 314 314 314 314 313 313 313 313 313 313 312 313 312 312 313 314 314 313 313 313 315 316 316 316 316 315 315 315 315 315 315 315 315 313 311 309 309 309 308 308 307 306 305 304 303 302 301 300 299 299 298 296 296 296 296 295 295 295 295 295 295
Wind_Speed
9 8 8 8 7 7 6 6 6 5 6 6 7 7 7 7 7 6 6 5 5 5 4 4 5 7 8 8 7 5 3 2 1 2 4 4 4 3 2 3 2 3 4 4 4 4 3 3 2 2 3 3 3 3 4 5 5 5 5 5 5 5 5 5 4 4 4 4 5 5 5 6 6 6 6 6 7 8 8 8 9 9 9 9 9
9 8 8 7 6 5 5 5 5 5 5 5 6 6 6 6 6 6 5 5 5 5 4 4 4 6 8 8 7 6 5 3 3 3 4 5 4 2 1 1 2 2 3 4 4 4 4 4 4 3 4 5 5 6 6 6 6 6 6 5 4 4 4 4 3 4 4 4 4 4 4 4 4 5 5 6 6 7 7 8 8 8 9 9 9
8 8 8 7 5 5 5 5 5 4 5 5 6 6 6 6 6 6 5 5 5 5 4 5 5 6 8 9 8 7 6 5 4 4 5 6 4 1 1 2 3 2 3 4 5 5 4 5 6 6 6 7 9 10 9 7 7 6 5 4 4 3 3 3 3 3 3 3 3 3 3 3 4 5 5 5 6 7 7 7 8 8 8 9 9
8 8 8 7 6 5 5 5 6 5 5 5 5 6 6 7 6 6 6 6 6 5 5 5 5 6 7 8 9 8 7 6 6 6 6 5 4 2 3 4 4 3 2 4 5 7 6 6 7 7 7 7 10 12 12 11 9 6 5 4 4 4 3 3 3 4 3 3 3 3 3 3 4 5 6 6 6 7 8 8 8 8 8 9 9
9 9 8 7 7 7 6 6 6 6 7 6 5 5 6 7 7 6 6 7 6 6 6 6 6 6 7 8 8 8 7 7 7 6 6 5 4 4 4 4 5 4 2 4 6 7 7 6 6 7 6 5 6 8 10 12 12 9 7 6 5 5 4 4 3 3 3 3 3 3 3 3 3 4 5 5 6 6 7 7 7 8 8 9 9
10 9 7 7 8 8 8 7 7 8 8 7 6 5 6 7 7 7 7 7 7 7 7 7 6 6 7 7 7 7 7 7 7 6 6 5 5 5 5 4 4 4 4 4 5 6 8 8 5 5 5 4 4 4 6 9 13 13 10 8 8 7 7 6 6 5 4 3 2 2 2 2 3 3 3 4 4 5 5 6 6 7 8 8 8
10 9 8 8 8 9 8 8 7 8 9 8 7 6 6 7 8 7 7 7 7 7 7 7 6 6 7 7 7 8 8 7 7 6 6 5 5 5 5 5 5 5 4 4 3 3 6 7 4 3 4 4 3 2 3 6 10 13 13 12 11 11 11 10 9 8 6 4 3 3 3 3 3 3 4 3 3 4 4 5 5 6 7 7 8
9 9 8 8 9 9 8 8 7 7 8 8 7 6 7 7 7 8 8 7 7 7 7 7 6 6 8 8 8 8 8 8 7 6 6 6 5 5 6 5 5 5 5 4 3 2 3 5 4 3 3 4 3 2 3 4 5 9 12 14 14 14 13 13 12 11 10 9 8 7 6 5 4 4 4 4 4 3 3 4 5 6 6 7 7
8 9 9 9 9 9 8 8 7 7 8 8 7 6 7 8 8 8 9 9 8 7 7 7 6 7 8 9 9 8 7 7 7 6 6 7 6 6 6 5 5 5 5 5 4 3 2 3 4 4 2 3 4 3 3 3 3 4 7 10 11 12 12 13 13 13 13 13 14 13 11 9 7 6 5 5 4 4 4 4 5 5 6 7 7
8 9 9 9 10 9 9 8 7 7 8 7 7 6 7 8 8 8 9 9 8 7 7 8 7 7 8 9 9 8 7 6 6 7 6 6 6 6 6 6 6 6 5 5 5 4 3 3 4 4 3 4 5 5 4 4 3 3 4 5 6 7 8 8 9 10 11 13 14 14 14 13 11 9 7 6 5 5 4 4 4 5 5 6 6
9 9 9 10 10 10 9 8 7 7 7 6 6 7 7 8 8 9 9 9 9 8 8 8 8 8 9 9 9 8 8 7 6 7 6 5 5 5 7 7 8 7 6 6 6 4 4 4 4 4 4 4 5 6 5 5 4 3 4 3 3 5 5 5 6 7 8 9 10 10 12 13 12 11 9 7 6 6 5 5 5 4 5 5 5
9 9 10 10 10 10 9 8 7 7 7 6 6 7 7 8 9 9 9 9 9 8 8 8 8 8 8 8 8 8 8 7 7 7 6 5 4 5 7 7 7 8 7 6 5 5 4 5 4 5 5 4 5 6 5 5 4 3 3 2 2 3 3 3 4 5 6 6 6 7 8 9 9 10 9 9 8 7 7 6 5 5 4 4 4
9 9 9 9 9 9 8 8 7 7 7 7 7 8 8 8 9 10 9 9 8 8 8 8 7 8 8 8 8 8 7 7 7 6 5 5 4 5 7 7 6 7 7 6 5 5 4 4 4 4 4 4 5 6 5 4 3 2 2 2 2 2 2 2 3 3 3 3 4 4 5 5 6 6 7 8 9 9 8 7 6 5 5 4 4
9 9 9 8 8 8 8 9 8 7 7 7 8 8 9 9 8 9 9 9 8 8 9 8 7 7 8 8 7 7 6 6 6 5 5 4 3 5 6 7 7 7 7 7 6 5 5 4 3 3 3 3 4 4 4 3 2 2 2 2 2 2 3 3 3 2 2 3 3 3 3 3 3 4 5 5 6 8 7 6 6 5 5 5 5
8 8 8 7 7 8 9 10 9 7 7 8 8 8 9 9 9 9 9 9 8 8 8 8 7 7 7 7 7 7 6 4 5 5 4 4 3 4 5 6 7 7 7 7 5 5 5 4 3 2 1 1 1 2 2 1 1 1 2 2 1 3 5 4 4 3 2 2 2 2 2 2 2 2 3 3 3 4 5 5 5 5 6 6 6
8 8 7 7 8 8 8 9 8 8 8 8 8 8 8 9 9 9 8 9 9 9 9 9 8 7 5 5 5 6 5 4 5 4 4 4 3 4 5 6 6 6 7 6 5 5 5 4 4 2 1 1 1 2 1 1 2 1 1 1 1 3 5 5 4 4 2 2 2 3 2 2 2 2 3 3 2 3 3 4 4 4 5 4 4
9 9 9 8 8 8 8 8 8 8 8 8 8 8 8 8 8 8 9 8 8 8 10 9 8 8 6 4 4 4 5 7 7 5 4 4 3 4 5 6 5 6 6 6 5 4 5 4 3 2 2 1 1 1 2 2 2 1 0 2 3 4 5 5 5 5 4 4 4 3 2 2 2 3 3 3 3 3 4 4 4 3 3 3 3
10 10 10 9 8 8 8 7 8 8 8 9 9 9 8 8 8 8 9 9 8 7 9 9 9 9 7 4 3 3 5 8 7 7 7 4 4 5 6 7 6 6 6 6 5 5 5 4 3 3 2 1 2 2 2 3 3 2 2 4 5 5 5 7 8 8 9 9 9 8 7 7 6 5 5 4 2 3 3 3 3 2 2 4 4
11 11 10 9 8 8 7 7 7 7 7 8 8 8 8 7 8 8 8 9 9 7 7 8 8 9 8 6 3 2 3 6 7 9 9 6 5 6 7 7 6 5 6 6 5 5 5 5 4 4 4 5 6 6 7 6 5 5 6 7 7 8 9 10 11 11 12 11 11 10 9 9 9 8 9 8 8 7 6 5 5 4 3 3 3
11 11 10 9 8 7 7 7 7 6 7 7 7 7 7 7 7 7 8 9 9 8 8 9 8 8 8 8 5 1 1 5 6 8 10 10 9 7 6 6 5 5 6 6 6 6 6 6 6 6 7 7 8 9 10 9 8 7 8 9 10 11 12 11 10 10 10 10 10 10 10 10 9 9 9 10 10 10 10 9 9 8 8 7 6
11 11 10 9 8 7 7 7 7 6 6 6 6 6 6 6 6 6 7 7 8 9 9 9 8 8 8 8 6 4 3 5 6 6 9 11 10 9 7 6 5 7 7 8 9 9 9 9 9 9 9 9 10 10 10 10 9 9 10 11 11 11 10 9 9 9 10 10 11 11 11 11 11 11 10 10 9 9 9 9 9 8 8 8 8
11 11 10 9 8 8 7 7 6 6 6 6 6 6 5 5 5 6 6 7 7 7 7 8 8 8 7 7 6 5 5 6 7 7 7 8 10 10 7 6 7 10 10 10 11 11 11 11 11 11 10 10 11 11 12 11 10 11 12 11 10 9 9 9 10 10 11 11 11 11 11 11 11 10 10 9 9 8 8 8 7 7 6 6 6
11 11 10 9 8 8 7 6 5 5 5 5 5 6 5 5 5 5 6 7 6 6 6 7 8 8 7 5 3 4 5 4 5 7 7 7 10 12 8 7 9 11 12 12 12 12 12 12 12 12 11 11 12 12 12 12 12 11 10 9 8 9 9 10 10 10 10 10 10 10 10 10 9 9 9 9 8 8 8 7 7 6 6 6 6
12 12 10 9 8 7 6 5 4 4 5 5 5 6 6 5 5 6 6 7 6 5 5 5 5 6 7 5 4 6 5 2 3 6 7 7 10 11 10 8 9 11 13 13 13 13 13 13 13 13 12 12 12 12 11 11 11 10 8 8 8 9 9 10 10 10 10 9 9 9 9 9 9 9 8 8 8 8 8 8 7 7 7 7 7
13 12 11 10 9 7 7 6 5 5 6 6 6 7 7 6 6 6 6 6 5 4 4 3 3 5 6 6 6 7 5 3 4 5 6 7 9 10 9 8 9 13 14 14 14 13 13 13 13 13 12 11 11 10 9 9 9 8 7 8 8 8 9 9 9 9 9 9 9 9 9 9 9 10 10 10 10 9 9 9 8 8 8 9 9
12 11 11 11 10 8 6 6 5 6 7 7 7 7 7 7 6 6 5 4 4 3 3 2 2 3 6 7 7 7 5 4 4 5 4 5 7 9 9 10 11 13 13 13 13 12 12 13 12 12 10 9 9 8 8 8 8 8 7 7 8 8 8 9 9 9 9 9 10 10 10 10 10 11 11 11 11 11 11 11 10 10 10 10 10
11 10 10 10 10 8 6 5 4 6 8 8 8 7 7 7 7 6 5 4 4 4 4 3 3 3 5 7 7 6 5 4 4 5 4 3 6 6 7 11 14 14 11 11 12 11 11 12 11 10 9 8 7 7 7 7 8 8 7 6 7 8 8 8 9 9 10 11 11 12 12 13 13 12 12 12 12 13 13 12 12 11 11 10 10
10 9 9 9 9 8 6 5 4 5 8 9 8 7 7 8 9 8 7 7 6 6 6 6 4 4 4 6 7 6 5 4 5 6 6 7 8 7 5 9 13 14 12 9 9 10 11 11 10 9 8 8 8 8 9 8 7 7 7 6 7 8 8 9 9 10 11 12 12 13 14 14 15 14 14 13 13 13 13 13 13 12 12 12 11
9 9 8 8 8 8 7 6 4 5 8 10 8 7 8 9 10 9 8 8 8 7 7 7 6 5 5 6 7 7 6 6 7 9 11 12 11 10 10 8 9 11 12 10 9 10 10 10 9 9 9 9 9 9 9 8 8 7 7 6 6 7 7 8 9 9 10 10 11 12 13 14 15 15 16 16 15 14 14 14 14 13 13 12 12
9 8 8 8 7 7 7 6 4 5 8 11 9 8 9 10 10 9 8 8 7 7 8 8 8 8 7 8 8 8 8 10 12 14 14 14 12 11 11 10 9 9 9 10 11 11 10 10 9 9 10 10 10 10 9 8 7 7 6 6 5 5 5 6 6 7 7 8 9 11 12 13 14 15 17 17 17 16 15 15 15 14 13 13 12
9 8 8 7 7 7 7 7 5 5 8 11 10 9 9 10 9 8 8 8 7 7 8 9 10 10 9 10 10 10 11 13 15 16 15 14 12 9 7 7 7 7 7 7 9 10 10 9 9 9 11 11 11 10 9 9 8 7 7 6 6 5 4 4 3 4 6 7 9 10 12 13 14 16 17 18 19 18 17 17 16 16 15 14 13
9 8 8 7 7 7 8 8 6 5 8 11 11 10 10 10 9 8 7 8 8 7 8 10 11 10 10 10 11 11 12 14 15 15 14 13 11 8 3 2 3 3 4 4 5 6 8 9 9 10 11 11 11 11 11 10 9 8 7 7 6 5 4 3 0 2 4 6 8 10 12 13 15 17 18 19 20 20 19 18 18 17 16 15 14
8 9 8 7 7 8 8 8 7 6 8 11 11 10 10 11 9 8 7 7 7 8 8 9 10 10 9 9 9 10 11 12 12 11 11 9 7 5 1 1 2 2 1 1 2 3 5 8 9 10 11 10 11 11 12 11 10 9 8 7 6 6 5 4 3 3 4 6 8 10 12 14 15 17 18 20 21 21 21 19 18 17 16 15 15
8 9 8 8 8 8 9 9 9 8 8 10 11 11 11 11 10 8 7 6 7 8 8 8 8 9 8 7 7 7 8 8 8 8 6 5 3 1 2 3 4 6 5 4 2 2 3 5 8 10 10 11 11 11 12 12 11 10 9 8 7 7 6 5 5 4 5 7 8 10 11 13 15 17 18 20 21 22 22 20 18 17 16 16 15
7 8 9 9 8 9 10 10 10 9 8 10 11 12 12 11 10 8 7 6 7 9 9 7 7 8 7 6 6 5 5 5 5 4 2 1 0 1 3 4 5 6 7 8 6 4 5 5 6 9 10 11 12 12 12 13 13 12 11 10 9 8 7 6 6 6 7 8 9 10 11 13 15 16 18 20 21 22 22 20 18 17 16 15 15
6 7 7 8 9 9 10 11 11 10 9 10 11 12 12 12 10 9 9 9 10 9 9 8 7 6 5 5 4 3 3 2 2 1 1 0 1 2 2 3 3 4 5 7 8 8 8 7 7 9 11 12 12 13 13 14 14 14 13 12 11 10 9 9 9 9 9 10 10 11 12 13 15 16 18 20 21 22 21 19 17 16 15 15 14
5 6 6 7 9 9 10 11 11 11 11 11 12 13 13 12 12 11 11 11 10 10 9 8 6 5 5 5 4 4 3 3 3 3 2 2 2 3 3 3 3 3 3 4 6 8 10 10 9 10 11 13 14 14 15 16 16 15 15 14 13 13 12 12 12 12 12 12 12 12 13 14 15 17 18 20 21 22 20 18 16 16 15 15 15
4 4 5 6 8 9 11 12 13 12 13 13 14 14 14 13 12 11 10 10 9 9 8 7 6 5 5 5 5 5 5 5 5 5 4 4 4 3 3 3 3 3 3 3 3 5 9 12 12 11 11 14 15 15 16 17 17 17 17 16 16 16 15 15 15 15 15 14 14 14 15 15 16 17 18 20 21 21 19 17 16 16 15 15 15
5 4 4 6 9 10 11 14 15 14 14 15 15 15 15 14 13 11 10 9 8 8 7 6 6 6 5 4 4 4 4 4 4 4 4 5 4 4 4 4 4 4 3 3 3 3 6 11 13 13 13 14 16 17 17 17 18 19 19 19 19 19 18 17 18 17 17 16 16 16 16 16 16 17 18 20 21 20 19 17 16 16 15 15 16
6 5 4 6 9 11 12 15 15 15 16 16 16 15 14 13 13 11 10 9 8 7 7 7 7 6 5 4 4 3 3 3 3 4 4 4 4 5 5 5 5 5 5 5 4 5 6 9 12 14 14 16 17 19 20 19 20 21 21 22 22 21 20 20 19 19 18 18 18 18 17 17 17 17 19 20 20 19 18 17 17 16 16 16 17
8 7 6 6 9 11 12 14 15 15 16 16 15 14 13 12 11 11 10 9 7 7 6 6 7 7 6 5 3 3 3 4 4 4 5 5 5 5 6 6 6 6 6 6 6 7 8 9 12 14 16 17 19 20 22 22 23 23 22 22 23 22 21 21 21 20 20 19 19 19 18 17 17 18 19 19 19 18 17 17 17 17 17 17 18
9 8 8 7 8 10 11 12 13 14 14 15 14 13 12 11 10 9 9 8 7 6 4 4 5 6 6 5 3 2 2 3 4 4 5 6 6 7 7 7 7 7 8 8 8 9 10 11 13 14 16 18 19 20 21 23 24 25 24 23 24 24 23 23 23 22 21 21 20 19 18 17 17 17 18 18 17 17 17 17 17 17 18 19 19
10 9 9 8 8 9 10 11 12 12 12 13 13 12 12 11 10 9 9 8 7 6 5 5 5 6 6 6 5 4 4 4 5 6 6 7 8 8 9 9 9 9 9 9 10 10 11 12 14 15 16 18 19 20 21 22 24 25 25 25 26 25 25 25 24 24 22 21 20 19 19 18 17 17 17 17 17 17 17 17 18 19 20 21 21
11 10 10 10 9 9 9 10 11 12 12 13 13 13 12 12 11 10 10 9 9 8 8 8 7 7 8 8 8 7 7 7 8 8 9 9 10 10 10 11 11 11 11 11 12 13 13 14 15 16 17 18 20 20 21 22 23 25 26 27 27 27 27 26 26 25 23 20 18 18 18 19 17 16 17 17 17 18 18 18 19 21 22 22 22
13 12 10 9 10 9 10 10 11 12 14 14 14 14 14 13 13 13 13 12 12 12 12 11 11 11 11 11 11 11 11 11 11 11 12 12 13 13 13 13 14 14 14 14 14 15 15 16 17 18 19 19 21 22 22 21 22 24 27 29 29 29 28 27 27 27 24 20 19 18 18 19 17 15 17 18 18 18 19 20 21 22 22 22 21
16 16 13 11 11 11 11 12 12 13 14 15 15 15 15 15 15 15 15 14 14 15 15 15 15 15 15 15 15 15 15 15 15 15 14 15 15 16 16 16 17 17 16 16 17 17 18 18 19 20 20 21 22 24 25 25 24 24 26 29 30 30 29 28 28 27 23 21 19 17 15 17 17 14 16 19 19 19 20 21 21 22 22 21 21
17 16 14 13 12 12 12 12 13 13 15 16 16 16 15 15 15 15 16 16 16 17 17 17 17 17 18 17 17 17 17 17 17 17 17 17 18 19 19 19 20 19 19 19 20 20 21 21 21 21 22 22 23 25 27 28 28 27 27 27 29 29 28 28 28 26 23 21 19 15 13 15 17 15 16 19 19 19 20 22 22 21 21 21 21
13 13 13 12 12 12 12 12 12 13 14 15 16 17 16 16 16 17 17 17 18 18 18 18 18 18 18 18 18 19 19 19 19 19 20 20 21 21 21 22 22 22 22 22 22 23 23 22 22 23 23 23 24 25 27 27 28 29 28 26 26 26 25 25 25 23 20 17 15 13 12 14 17 16 16 19 20 19 20 22 22 20 20 22 22
14 13 12 12 13 13 13 13 14 14 15 15 16 17 17 18 18 18 19 19 19 19 19 19 20 20 20 20 21 21 21 21 21 21 22 23 23 22 22 23 23 24 24 24 24 24 23 23 23 22 22 23 24 25 26 26 28 30 29 27 26 25 23 22 20 18 16 13 13 13 12 14 17 17 17 20 22 21 20 20 21 21 21 23 23
13 13 13 12 12 13 13 13 13 12 12 13 14 16 17 18 18 18 18 19 19 19 19 20 20 20 20 21 21 22 22 22 22 23 23 23 22 22 22 23 24 24 25 24 24 23 23 22 22 21 21 22 23 24 26 27 28 30 28 26 25 23 20 17 14 15 16 15 15 14 14 15 18 19 19 21 21 21 21 19 19 21 22 23 24
9 10 10 10 10 10 10 11 12 12 12 13 14 14 15 16 16 16 17 17 17 17 17 18 18 18 18 18 19 20 20 21 21 21 21 21 21 21 21 22 24 24 23 22 22 21 21 20 20 20 20 21 22 23 24 25 27 27 25 23 21 19 17 15 14 15 17 17 16 15 15 16 18 19 21 20 18 18 21 21 19 19 20 21 22
Wind_Direction
147 143 144 143 137 137 140 145 150 155 165 166 162 161 161 163 164 168 177 184 185 183 184 185 192 200 203 208 212 207 195 170 152 139 136 134 132 117 73 54 72 64 36 20 32 48 56 73 84 77 74 60 49 35 31 29 27 28 29 32 41 50 58 63 71 71 71 68 67 71 74 78 77 76 74 71 70 67 64 58 56 56 55 55 54
152 149 148 148 144 142 149 161 166 168 175 179 180 178 175 174 172 172 177 185 190 189 186 181 180 187 194 199 204 203 199 189 173 159 151 151 152 142 91 93 129 102 53 33 25 39 55 63 66 74 73 61 52 42 33 27 21 19 20 22 24 34 50 60 71 72 74 74 69 70 69 75 77 76 73 67 64 63 64 61 58 55 54 54 51
160 157 155 157 158 156 160 175 185 187 187 190 192 193 192 189 187 186 189 194 200 200 197 192 182 180 187 192 196 201 203 198 188 175 161 160 168 160 118 120 140 134 65 50 34 40 52 51 55 72 83 70 61 56 50 40 30 24 21 22 20 20 34 46 54 59 61 65 63 59 55 54 54 57 57 53 52 54 55 54 55 53 52 52 49
170 166 165 167 172 175 178 186 200 208 202 197 198 203 203 199 201 202 204 205 206 206 203 198 189 183 186 189 195 201 203 201 193 177 165 165 174 164 148 143 149 156 87 64 50 50 51 48 57 73 81 71 62 58 54 46 39 38 36 35 36 37 41 44 48 50 52 52 48 45 41 40 40 43 47 45 43 44 45 44 45 46 46 47 47
179 172 174 178 182 187 192 196 206 213 207 201 201 204 203 203 206 208 211 211 208 205 201 198 196 189 187 190 194 196 197 197 189 172 165 168 172 165 161 157 152 152 103 71 61 58 55 53 66 79 80 70 59 53 49 44 38 40 48 52 56 60 61 60 60 60 62 59 54 49 45 46 46 45 46 47 45 44 44 43 42 42 41 41 42
186 183 184 188 192 194 199 205 209 210 208 208 208 204 202 204 205 204 206 207 202 198 196 195 197 194 187 186 184 187 192 190 180 168 167 170 172 162 156 163 155 139 111 85 70 60 55 56 73 95 93 82 74 59 48 47 44 44 52 59 62 64 65 62 60 60 64 68 68 65 57 55 54 52 53 52 53 52 50 48 46 45 44 42 41
193 196 198 199 200 201 204 208 209 210 210 210 207 201 201 204 203 200 197 197 195 192 193 190 190 189 180 175 174 180 186 181 172 168 171 174 175 163 158 169 162 138 124 117 96 64 54 59 81 108 101 97 102 91 60 57 53 50 55 63 65 65 64 62 61 61 62 66 67 63 59 56 53 53 55 51 50 53 52 50 49 48 47 47 46
200 201 204 205 204 205 207 208 206 206 206 201 199 198 199 201 200 197 189 186 190 189 188 183 179 179 176 174 173 172 173 171 167 168 176 177 173 169 170 172 162 149 138 135 142 124 57 54 72 76 88 107 112 103 83 83 73 61 63 68 70 70 70 69 68 67 67 66 64 62 60 59 58 59 60 57 53 49 48 46 46 48 48 51 51
203 203 204 204 201 204 207 205 202 200 200 196 196 199 197 192 191 195 191 184 188 189 184 179 174 172 178 179 174 166 160 165 168 173 178 175 171 167 171 178 165 157 147 138 144 146 101 62 75 77 95 126 130 128 113 111 107 76 68 69 68 67 70 70 66 65 66 65 63 61 59 59 60 65 67 67 66 58 51 45 41 45 48 49 52
204 203 202 198 196 199 202 201 197 195 195 192 194 194 194 191 188 193 195 188 184 182 177 176 172 169 173 176 174 166 156 160 167 169 172 174 174 160 161 180 174 163 158 146 145 147 132 98 90 93 107 131 140 144 142 136 123 84 68 65 57 51 58 64 56 56 61 61 60 59 57 55 55 58 62 64 65 63 57 52 44 43 47 46 48
200 196 192 191 194 196 197 195 190 188 190 191 193 190 190 194 191 190 196 192 179 173 173 171 170 169 166 165 166 168 164 159 155 156 161 169 167 154 158 170 169 167 167 154 150 156 144 119 107 104 107 125 141 146 147 140 119 82 63 57 43 33 39 51 43 41 48 49 47 50 50 50 51 53 58 61 60 59 55 55 52 46 46 45 47
187 184 184 187 191 192 194 192 184 181 186 190 192 190 189 194 195 190 192 192 180 171 168 167 171 169 158 149 149 157 157 147 149 155 157 157 155 161 165 166 168 170 167 158 156 158 146 125 112 106 106 118 134 140 140 129 111 85 62 31 5 13 24 41 37 25 26 29 27 29 32 37 45 50 55 59 58 57 54 52 53 47 42 38 41
177 178 182 187 188 186 188 189 184 181 185 190 193 193 189 190 194 190 188 192 186 176 170 167 173 167 149 140 142 145 139 136 153 161 151 148 160 172 171 171 178 177 171 171 171 165 154 139 120 113 116 119 126 137 139 128 107 74 49 12 345 346 357 16 28 15 8 13 12 16 16 20 36 44 50 58 60 59 54 49 50 47 42 32 28
173 175 178 182 181 178 179 183 185 187 192 195 195 195 190 187 191 192 191 189 187 184 178 171 175 172 152 138 134 130 123 128 141 139 136 142 154 172 176 183 191 188 184 184 184 181 172 163 151 140 135 121 121 134 133 119 91 63 60 56 18 14 25 16 14 12 5 6 3 8 13 10 25 34 37 50 60 59 55 50 47 46 44 38 29
172 172 172 176 176 177 181 184 188 191 196 199 196 191 186 184 187 193 195 190 187 189 188 183 181 177 158 143 138 133 129 130 130 128 138 144 148 160 165 184 195 195 195 194 196 195 185 176 180 178 164 133 141 146 128 113 109 97 87 87 60 33 39 29 17 19 14 358 343 339 351 354 4 18 18 20 34 42 42 35 35 43 45 44 40
172 171 171 175 177 180 185 187 187 188 191 192 191 187 183 186 192 195 198 196 193 194 194 192 184 175 166 157 150 145 142 145 138 131 138 138 138 146 146 159 174 179 186 188 188 196 196 196 203 208 222 248 208 186 189 208 193 175 66 72 34 31 42 45 46 49 46 15 346 339 346 344 344 352 354 349 343 353 356 349 5 32 35 36 49
173 174 174 175 175 176 178 180 182 185 187 185 186 189 188 192 199 200 203 204 204 205 200 192 184 178 176 164 149 151 162 160 141 118 129 148 139 138 141 138 138 145 157 163 161 174 191 200 208 205 214 238 202 198 220 219 200 195 60 74 63 48 47 52 59 63 61 48 33 27 32 31 18 3 346 327 309 313 317 320 335 354 352 352 28
174 176 175 171 170 169 172 177 180 184 185 183 186 192 192 194 199 202 207 204 199 206 205 196 189 183 179 171 146 137 163 166 152 127 129 146 139 128 124 121 129 140 143 149 151 151 158 164 170 164 153 139 115 126 154 171 176 151 96 82 74 70 66 67 74 79 78 77 73 68 67 65 62 51 39 35 18 349 335 341 356 357 316 307 321
173 175 174 170 167 167 170 175 180 181 179 180 187 191 192 196 198 198 203 201 190 191 201 201 197 192 190 188 167 102 131 157 160 150 140 133 134 134 131 135 149 147 137 143 147 139 134 133 133 125 114 112 108 106 113 120 123 112 93 84 85 91 89 84 85 87 85 83 78 71 67 66 65 61 59 60 57 51 44 43 50 52 30 354 338
171 175 177 173 169 169 170 171 174 174 171 172 177 180 185 196 200 199 202 201 188 181 191 201 206 207 204 203 202 200 137 144 150 157 151 142 143 149 153 156 161 143 134 138 136 128 123 117 115 116 115 114 110 107 109 108 107 102 94 92 96 97 93 86 81 77 76 73 69 66 64 64 62 61 61 61 61 60 60 59 59 55 48 42 36
171 177 178 173 169 168 167 168 170 171 171 168 163 162 171 184 195 203 203 197 188 182 187 195 206 215 211 210 215 223 208 165 157 159 153 148 151 157 157 159 154 138 132 129 125 122 118 114 113 115 117 116 112 110 109 109 109 106 100 97 96 92 86 79 73 69 68 68 67 66 64 61 60 59 59 58 57 57 57 56 54 50 45 40 36
174 173 168 164 163 162 162 166 170 174 174 168 159 157 161 171 186 200 199 193 190 189 191 193 196 201 200 202 212 222 213 186 172 166 154 148 156 159 153 152 145 133 128 124 120 118 114 111 111 112 115 114 110 110 110 112 112 108 102 97 91 85 81 78 76 72 70 67 64 61 58 56 54 53 52 52 52 50 49 48 45 42 35 28 24
170 163 157 155 154 154 154 160 171 179 178 170 163 163 166 172 181 192 197 196 195 197 202 201 193 187 188 194 195 201 209 198 182 179 165 145 152 158 153 142 137 132 130 127 121 119 116 114 114 115 115 112 109 110 111 112 110 104 99 93 86 83 82 80 78 74 70 66 61 57 53 49 45 43 42 40 38 37 36 35 33 29 22 15 9
161 158 156 156 152 151 149 150 163 178 181 180 171 165 167 174 179 184 195 199 201 201 202 207 205 191 189 194 169 158 176 192 189 190 174 149 149 156 152 139 134 133 132 129 126 125 123 121 121 120 118 115 113 113 113 110 106 100 96 92 86 83 80 76 74 71 68 65 61 57 51 45 40 35 32 27 24 22 18 15 12 9 6 2 359
158 160 160 158 152 150 148 144 148 160 169 171 164 157 159 165 172 178 188 196 196 193 187 187 199 193 188 190 169 153 158 171 168 178 179 159 149 149 145 138 136 135 134 133 131 128 128 127 125 123 120 118 118 116 114 111 106 102 99 96 89 82 76 70 65 61 59 58 57 56 52 48 43 38 32 27 23 18 14 9 3 358 354 351 349
153 156 158 157 152 148 146 142 144 157 163 161 157 154 152 153 158 166 176 183 178 166 154 150 157 175 182 185 179 168 169 177 161 163 181 172 153 149 145 138 137 136 134 135 133 129 132 132 127 124 122 122 122 119 120 118 113 107 99 93 86 77 69 64 59 56 56 57 57 56 54 51 48 45 41 37 33 28 24 18 13 7 0 356 351
147 146 148 151 151 150 148 141 144 163 169 165 160 157 152 150 147 145 147 142 129 116 103 103 121 151 174 183 188 187 187 190 166 155 162 158 140 135 141 145 141 137 135 135 136 138 141 138 132 130 129 130 131 130 130 128 120 114 105 94 88 81 75 69 67 68 66 65 63 60 57 54 50 47 42 39 36 34 31 27 23 19 14 9 4
146 143 143 144 145 147 147 140 143 164 172 170 165 162 157 145 133 124 120 114 105 96 87 84 97 128 158 171 179 185 187 183 164 146 138 140 131 105 112 150 147 141 143 141 142 149 150 146 142 143 144 145 146 144 141 138 132 126 119 109 101 96 92 87 83 81 77 74 70 65 62 58 53 49 44 40 36 33 32 29 25 22 18 14 9
152 151 150 145 139 141 142 138 136 153 169 171 169 167 157 138 124 116 112 107 96 88 82 81 88 110 139 153 158 164 168 158 146 137 130 134 130 104 99 120 129 137 148 152 155 161 161 158 155 157 158 157 156 155 152 151 148 140 132 125 117 112 108 101 93 86 80 74 68 62 58 54 49 46 42 38 36 33 32 29 25 22 17 13 8
160 160 159 152 142 140 142 139 131 142 164 171 171 168 155 135 122 118 117 110 99 91 86 86 90 98 118 138 141 141 142 137 134 130 125 128 131 113 99 97 97 110 131 147 159 166 167 168 169 169 167 165 166 166 165 166 165 159 153 149 143 137 127 115 99 82 69 57 50 47 43 40 37 35 33 32 30 29 29 27 23 20 15 11 6
161 166 165 158 148 143 145 143 132 135 158 168 168 166 156 138 127 126 124 116 109 105 97 91 92 95 104 117 121 124 128 128 127 125 121 125 135 132 108 93 91 93 102 127 153 166 170 174 180 180 176 174 175 177 179 181 182 178 173 172 171 166 155 138 104 65 44 33 32 32 30 28 26 25 25 24 23 23 23 22 19 15 11 6 2
155 164 166 162 152 145 147 148 140 132 151 164 166 166 163 151 140 137 133 124 118 117 109 97 92 93 99 106 108 112 119 121 123 122 120 126 141 150 137 67 64 78 85 102 132 161 173 179 186 188 186 184 183 186 190 193 195 193 188 187 188 186 187 188 187 13 13 12 15 19 18 17 16 16 16 15 15 16 16 15 13 9 6 2 358
154 158 163 164 154 146 149 154 150 137 144 159 164 167 167 160 152 146 142 137 130 125 119 108 99 95 98 105 106 105 107 108 108 107 110 119 135 153 161 350 341 324 318 110 119 157 183 189 193 196 196 195 194 196 199 201 204 205 203 203 204 211 222 233 258 302 335 348 357 3 6 7 7 6 6 6 7 9 10 9 7 4 1 358 355
155 154 158 163 157 151 156 161 158 149 146 154 162 167 166 160 153 148 147 149 143 136 128 120 112 104 100 104 106 102 100 97 95 95 97 102 112 148 291 299 298 297 292 277 237 217 227 216 207 207 205 201 201 205 208 207 207 209 214 219 224 231 238 246 259 285 313 328 338 346 351 355 356 356 357 358 0 3 4 3 1 358 356 354 352
155 155 157 162 162 161 163 166 164 161 156 154 159 163 160 153 147 141 138 139 139 140 139 134 124 116 111 112 111 109 108 106 104 103 94 81 75 285 293 297 298 298 291 282 265 240 248 250 228 220 217 211 209 211 210 209 209 211 216 224 233 240 246 253 264 283 299 308 319 328 335 340 343 345 348 350 354 356 357 356 354 351 350 349 348
156 162 162 163 165 168 168 169 169 168 166 160 157 158 154 147 141 134 129 128 128 132 139 145 144 140 139 138 139 138 138 148 168 190 227 267 286 288 293 304 313 313 296 279 262 244 245 252 243 231 228 222 217 215 211 210 211 214 219 226 236 247 254 259 267 277 285 292 302 310 319 326 330 335 339 344 347 350 350 349 347 345 344 344 344
147 166 170 166 167 169 169 170 171 170 169 163 158 157 153 147 143 138 134 131 129 130 134 141 152 160 167 174 179 190 205 219 231 236 238 257 279 276 275 284 300 313 316 291 260 241 235 239 245 243 234 226 222 219 215 213 213 217 222 228 237 248 256 259 265 272 276 281 288 296 306 314 320 326 332 337 341 343 344 343 341 340 340 340 340
132 160 173 173 169 168 170 170 170 169 168 163 160 159 156 153 150 149 147 144 142 142 142 145 150 158 170 185 201 215 226 236 242 249 259 272 276 266 262 270 279 291 309 320 290 240 224 229 239 246 242 236 230 225 221 218 217 220 224 229 236 245 253 257 262 267 270 272 278 286 296 304 312 319 326 331 335 337 338 337 336 336 336 337 337
129 150 171 179 174 171 172 171 170 169 168 166 165 164 163 161 161 160 161 161 160 161 162 163 165 169 176 189 205 220 231 240 250 266 278 284 284 278 273 276 282 284 279 286 295 260 229 229 238 246 248 246 240 234 230 225 222 224 228 231 236 243 249 255 260 264 265 268 273 280 288 296 305 313 320 326 330 332 333 332 332 333 334 335 334
134 143 165 184 181 176 176 175 173 173 172 172 171 171 171 171 172 173 174 175 177 178 181 185 187 186 184 187 200 219 239 254 273 288 293 298 302 301 299 296 294 290 279 265 258 256 247 240 241 247 251 249 244 239 234 228 227 230 232 233 237 243 250 254 259 261 262 264 268 275 282 290 300 310 317 323 326 327 327 327 328 330 331 332 330
149 149 157 177 182 178 179 180 180 180 179 179 179 179 180 181 182 185 187 189 191 193 197 202 205 205 198 191 200 224 247 263 279 290 295 304 312 313 315 315 310 306 301 290 275 266 263 258 255 256 254 250 246 243 240 237 237 239 239 238 239 244 250 254 256 259 259 260 263 270 278 287 296 306 313 318 321 322 322 323 324 326 327 326 324
158 154 151 165 176 175 178 184 187 189 189 190 191 192 193 194 198 203 206 209 209 208 211 213 216 213 203 196 201 222 250 267 279 287 290 297 301 303 307 309 310 309 305 301 294 283 275 272 270 269 264 257 253 251 250 249 248 246 244 242 242 246 249 250 253 256 257 257 261 267 276 284 293 301 308 312 315 316 317 318 319 320 321 321 321
162 157 153 158 168 171 175 180 186 193 198 201 204 206 206 207 209 210 212 216 217 216 219 219 216 211 208 213 224 234 250 263 272 279 283 287 290 292 295 295 296 296 295 295 293 286 281 276 273 273 271 268 266 262 259 256 252 248 247 246 246 247 248 248 250 255 257 257 258 264 274 282 292 300 305 308 311 312 313 313 315 318 320 321 322
184 176 168 166 169 174 178 181 184 190 198 203 204 206 208 209 211 211 213 217 221 226 231 232 232 229 228 234 241 249 259 266 272 276 280 286 290 289 289 287 286 286 286 287 287 285 284 281 277 275 272 273 275 271 266 263 259 253 250 249 249 249 250 249 248 252 257 259 258 263 273 284 293 300 303 306 309 310 311 312 315 319 321 322 322
210 207 201 195 192 196 200 200 200 201 205 207 208 209 211 213 217 221 224 227 231 234 239 242 244 244 245 248 250 255 261 267 272 276 277 281 285 286 286 283 282 281 278 277 279 280 281 280 279 279 277 276 276 274 273 272 269 262 255 252 252 251 249 247 246 249 255 256 257 264 275 285 293 298 300 303 307 308 310 312 316 320 321 320 320
215 215 221 223 219 220 224 223 222 222 222 221 222 223 224 226 230 232 235 238 239 240 242 243 244 246 248 251 253 255 258 263 268 272 275 278 280 281 281 279 279 278 276 276 279 280 280 279 278 279 280 279 278 276 274 270 267 266 263 259 257 254 250 247 246 247 248 249 255 265 274 282 290 295 296 300 304 307 309 312 317 320 320 319 318
211 212 222 229 230 233 236 237 239 239 237 235 235 236 239 241 243 246 248 249 249 249 248 247 247 248 250 252 255 257 259 262 266 270 272 274 275 276 276 276 276 276 276 278 280 281 281 280 278 278 279 279 279 278 276 271 265 261 260 261 261 257 254 250 245 241 240 244 254 263 267 277 289 294 294 297 302 306 309 313 318 320 319 317 317
212 210 218 225 229 232 233 234 237 240 241 241 241 242 245 247 249 252 255 257 256 256 254 253 253 254 255 258 259 261 263 265 267 270 270 271 271 273 274 274 274 274 276 278 279 280 281 280 279 279 278 277 276 275 276 277 272 262 255 252 252 248 244 242 239 239 241 245 257 269 272 280 291 295 294 297 302 307 312 316 319 321 320 318 318
209 212 217 219 222 225 227 229 231 234 239 242 244 247 248 250 253 256 259 261 261 261 260 259 260 261 262 263 263 264 266 267 267 268 267 268 268 269 271 272 273 274 275 277 278 279 280 280 280 278 276 276 275 273 274 276 275 269 256 243 237 233 229 231 236 246 256 261 270 279 281 285 292 296 296 300 306 311 315 319 321 322 321 318 317
211 219 222 222 225 228 230 232 231 232 239 245 249 252 253 255 257 259 261 262 262 263 263 264 265 267 268 269 269 270 270 269 267 265 263 263 264 266 267 269 271 273 274 276 278 279 280 281 280 279 278 276 275 275 275 273 271 265 251 232 225 222 219 224 239 256 267 274 279 282 284 288 294 298 302 309 315 315 316 322 323 323 321 317 315
215 220 221 226 235 237 240 247 248 253 263 265 261 258 258 259 260 261 262 262 264 266 268 270 272 274 275 276 275 274 271 268 266 264 264 265 267 268 269 270 272 274 276 278 278 279 281 282 282 282 281 280 278 276 275 270 263 254 239 225 223 226 226 233 244 254 264 271 275 279 284 290 296 300 306 315 319 312 313 320 324 322 317 313 312